Location: St. Louis
(38.6270°N, 90.1994°W)
Time: 02:47:25
(UTC-06:00)

Transit 2A - Pass Details

Date: 05 December 2021
Orbit: 591 x 966 km, 66.7° (Epoch: 24 January)

Event Time Altitude Azimuth Distance (km) Brightness Sun altitude
Rises 00:26:00 0° 233° (SW) 3,278 - -72.2°
Reaches altitude 10° 00:28:31 10° 242° (WSW) 2,412 - -71.9°
Maximum altitude 00:33:39 36° 308° (NW) 1,367 - -71.4°
Drops below altitude 10° 00:39:14 10° 14° (NNE) 2,630 - -70.8°
Sets 00:42:06 0° 23° (NNE) 3,614 - -70.5°
